�N����,����,����,����,����,�C��,���x,�~����,�S�V����,�ő�u�ԕ���,,,,,
,,,,,,,,,����,����,����,�N��,,
yyyy/mm/dd,hh:mm:ss,(16),16����,m/s,��,%,mm,KW/�u,(16),16����,m/s,Time,,
2019/9/1,1:00:00,14,�k��,0.8,17,100,0,0,16,�k,2.1,21,,
2019/9/1,2:00:00,1,�k�k��,0.6,16.6,100,0,0,14,�k��,2.2,25,,
2019/9/1,3:00:00,9,��쐼,0.3,16.3,100,0,0,1,�k�k��,2.1,0,,
2019/9/1,4:00:00,16,�É�,0.2,16.3,100,0,0,11,���쐼,1.9,1,,
2019/9/1,5:00:00,13,���k��,0.4,16.1,100,0,0,12,��,1.7,30,,
2019/9/1,6:00:00,16,�k,1.1,16.5,100,0,0.04,14,�k��,2.2,50,,
2019/9/1,7:00:00,14,�k��,1.3,17.9,100,0,0.18,13,���k��,3.3,27,,
2019/9/1,8:00:00,10,�쐼,1.1,19.4,100,0,0.44,14,�k��,2.8,1,,
2019/9/1,9:00:00,4,��,2,21.3,86,0,0.65,6,�쓌,3.7,59,,
2019/9/1,10:00:00,6,�쓌,2.8,24.5,72.1,0,0.8,6,�쓌,5,56,,
2019/9/1,11:00:00,13,���k��,6,26.5,54.8,0,0.84,12,��,9.5,59,,
2019/9/1,12:00:00,3,���k��,1.7,26.4,67.2,0,0.94,12,��,9.7,4,,
2019/9/1,13:00:00,12,��,3.2,28.1,55.1,0,0.94,12,��,7.4,59,,
2019/9/1,14:00:00,12,��,5.9,27.1,52.9,0,0.81,12,��,9,46,,
2019/9/1,15:00:00,12,��,5,26.8,57.7,0,0.65,12,��,10.1,13,,
2019/9/1,16:00:00,15,�k�k��,1.8,26.1,63.9,0,0.48,12,��,7.9,36,,
2019/9/1,17:00:00,4,��,1.3,24,71.4,0,0.28,5,���쓌,3.1,34,,
2019/9/1,18:00:00,11,���쐼,0.4,20.3,73.3,0,0.07,13,���k��,3.9,27,,
2019/9/1,19:00:00,2,�k��,1.9,18.4,82.1,0,0,16,�k,3.3,59,,
2019/9/1,20:00:00,12,��,1.4,15.4,94.6,0,0,4,��,3.6,8,,
2019/9/1,21:00:00,3,���k��,1.8,14.9,97.7,0,0,12,��,3,56,,
2019/9/1,22:00:00,12,��,1.8,13.6,97.3,0,0,12,��,2.9,46,,
2019/9/1,23:00:00,12,��,2.6,14.3,96.9,0,0,12,��,4,32,,
2019/9/1,0:00:00,13,���k��,3,13.9,97.2,0,0,13,���k��,3.9,56,,
2019/9/2,1:00:00,4,��,0.6,13.7,94.2,0,0,13,���k��,4.9,32,,
2019/9/2,2:00:00,13,���k��,1.2,12,99,0,0,12,��,2.2,58,,
2019/9/2,3:00:00,13,���k��,0.5,11.9,99.7,0,0,13,���k��,1.9,15,,
2019/9/2,4:00:00,13,���k��,2.1,11.9,99.7,0,0,13,���k��,2.8,55,,
2019/9/2,5:00:00,12,��,1.5,11.9,97.8,0,0,12,��,3.3,29,,
2019/9/2,6:00:00,13,���k��,1.3,12.7,97.8,0,0.04,12,��,2.6,23,,
2019/9/2,7:00:00,6,�쓌,1.7,15.4,91.4,0,0.15,5,���쓌,2.7,32,,
2019/9/2,8:00:00,13,���k��,1.8,17.5,91.8,0,0.24,12,��,3.3,17,,
2019/9/2,9:00:00,13,���k��,1.4,19.3,79.4,0,0.34,13,���k��,3.2,45,,
2019/9/2,10:00:00,9,��쐼,2.2,22.3,63.7,0,0.6,11,���쐼,4.5,31,,
2019/9/2,11:00:00,4,��,1.5,23.1,69,0,0.6,9,��쐼,3.3,1,,
2019/9/2,12:00:00,6,�쓌,1.5,24.8,59.9,0,0.73,6,�쓌,2.8,32,,
2019/9/2,13:00:00,8,��,2.9,23.9,63.7,0,0.55,8,��,5.4,51,,
2019/9/2,14:00:00,12,��,3.5,25.4,45.8,0,0.62,12,��,7,59,,
2019/9/2,15:00:00,10,�쐼,3.9,25.1,47.4,0,0.51,10,�쐼,8.4,30,,
2019/9/2,16:00:00,10,�쐼,4.9,24.6,52.7,0,0.46,11,���쐼,8.1,48,,
2019/9/2,17:00:00,8,��,4.6,23.1,55.1,0,0.26,3,���k��,8.6,48,,
2019/9/2,18:00:00,10,�쐼,5.7,21.2,63.4,0,0.06,10,�쐼,8.6,56,,
2019/9/2,19:00:00,10,�쐼,7.4,21.4,62.9,0,0,10,�쐼,10.7,39,,
2019/9/2,20:00:00,9,��쐼,3.4,20.4,71.5,0,0,10,�쐼,9.8,5,,
2019/9/2,21:00:00,9,��쐼,2.7,19.5,81.1,0,0,8,��,5.7,3,,
2019/9/2,22:00:00,9,��쐼,3.8,20,76.4,0,0,9,��쐼,8.8,10,,
2019/9/2,23:00:00,9,��쐼,2.6,20.1,75.6,0,0,9,��쐼,7,11,,
2019/9/2,0:00:00,2,�k��,1.3,16.1,85.8,0,0,10,�쐼,4.7,9,,
2019/9/3,1:00:00,2,�k��,1.4,17,87.4,0,0,2,�k��,3.1,36,,
2019/9/3,2:00:00,16,�É�,0.2,14.7,96.5,0,0,3,���k��,2.9,4,,
2019/9/3,3:00:00,12,��,2,14.4,97.8,0,0,12,��,2.4,54,,
2019/9/3,4:00:00,13,���k��,1.7,14.1,97.7,0,0,12,��,2.5,53,,
2019/9/3,5:00:00,12,��,1.4,14,98.7,0,0,12,��,3,37,,
2019/9/3,6:00:00,16,�É�,0.2,14.8,98.1,0,0.03,13,���k��,3.4,24,,
2019/9/3,7:00:00,13,���k��,1.8,16.7,94,0,0.11,13,���k��,2.9,57,,
2019/9/3,8:00:00,13,���k��,1.5,19.8,87,0,0.28,12,��,2.8,26,,
2019/9/3,9:00:00,10,�쐼,1.7,23,64.4,0,0.55,10,�쐼,3.1,59,,
2019/9/3,10:00:00,7,��쓌,2.4,24.1,68.1,0,0.81,6,�쓌,3.8,39,,
2019/9/3,11:00:00,7,��쓌,2.4,24.5,64.4,0,0.91,5,���쓌,4.5,35,,
2019/9/3,12:00:00,6,�쓌,2,23.4,70.5,0,0.72,7,��쓌,5,19,,
2019/9/3,13:00:00,7,��쓌,1.6,21.9,66.6,0,0.44,7,��쓌,4,43,,
2019/9/3,14:00:00,9,��쐼,1.4,23.3,63.5,0,0.47,9,��쐼,3.8,37,,
2019/9/3,15:00:00,9,��쐼,0.9,22.6,69.1,0,0.3,9,��쐼,3.6,13,,
2019/9/3,16:00:00,7,��쓌,0.9,23.2,68.9,0,0.28,1,�k�k��,2.4,36,,
2019/9/3,17:00:00,8,��,0.3,20.2,83.2,0,0.2,5,���쓌,2.5,22,,
2019/9/3,18:00:00,13,���k��,1.2,17.3,95.4,0,0.04,13,���k��,2.1,49,,
2019/9/3,19:00:00,14,�k��,1.7,17.1,92.4,0,0,14,�k��,2.8,50,,
2019/9/3,20:00:00,14,�k��,1.9,14.8,94.3,0,0,14,�k��,4.2,23,,
2019/9/3,21:00:00,1,�k�k��,3.4,17.2,90,0,0,1,�k�k��,5.7,54,,
2019/9/3,22:00:00,14,�k��,0.6,15,93,0,0,1,�k�k��,5.7,0,,
2019/9/3,23:00:00,14,�k��,2,15.1,93.8,0,0,15,�k�k��,3,59,,
2019/9/3,0:00:00,14,�k��,2,14.5,93.5,0,0,14,�k��,3,58,,
2019/9/4,1:00:00,14,�k��,1,14.1,97.4,0,0,14,�k��,3.2,3,,
2019/9/4,2:00:00,13,���k��,1.2,12,98.3,0,0,13,���k��,2.4,40,,
2019/9/4,3:00:00,13,���k��,1.4,11.5,98.7,0,0,14,�k��,2.6,33,,
2019/9/4,4:00:00,13,���k��,1.6,11.2,99.3,0,0,13,���k��,2.8,36,,
2019/9/4,5:00:00,14,�k��,3.1,12.5,94.1,0,0,14,�k��,5,52,,
2019/9/4,6:00:00,14,�k��,2.5,13.3,90.6,0,0.09,14,�k��,5.2,48,,
2019/9/4,7:00:00,14,�k��,1.9,15.6,83.7,0,0.28,9,��쐼,4.3,46,,
2019/9/4,8:00:00,13,���k��,1.6,18.5,78.4,0,0.48,14,�k��,4.4,14,,
2019/9/4,9:00:00,9,��쐼,0.5,20.9,68.9,0,0.66,6,�쓌,2.2,59,,
2019/9/4,10:00:00,5,���쓌,2.7,21.6,61.6,0,0.8,5,���쓌,3.8,53,,
2019/9/4,11:00:00,2,�k��,3.4,21.5,62.3,0,0.89,1,�k�k��,5.1,52,,
2019/9/4,12:00:00,6,�쓌,3.2,21,65.1,0,0.92,6,�쓌,6.2,23,,
2019/9/4,13:00:00,6,�쓌,3.3,21,65.8,0,0.88,6,�쓌,5.5,57,,
2019/9/4,14:00:00,7,��쓌,3.8,20.2,64,0,0.78,6,�쓌,6,28,,
2019/9/4,15:00:00,7,��쓌,3.6,19.7,71.2,0,0.63,8,��,6.2,58,,
2019/9/4,16:00:00,8,��,2.6,19,76.5,0,0.46,9,��쐼,5.7,27,,
2019/9/4,17:00:00,8,��,2.5,18,79.5,0,0.26,8,��,5.6,20,,
2019/9/4,18:00:00,9,��쐼,1.5,16.2,88,0,0.05,8,��,4.2,5,,
2019/9/4,19:00:00,10,�쐼,1.2,15.7,90,0,0,9,��쐼,3.6,7,,
2019/9/4,20:00:00,8,��,1.2,15.9,88.3,0,0,7,��쓌,2.5,52,,
2019/9/4,21:00:00,13,���k��,0.6,11.5,98.8,0,0,8,��,2,22,,
2019/9/4,22:00:00,12,��,1.6,10.9,99.9,0,0,12,��,2.4,57,,
2019/9/4,23:00:00,13,���k��,1.7,10.6,99.8,0,0,13,���k��,2.5,50,,
2019/9/4,0:00:00,13,���k��,1.9,10.9,99.8,0,0,12,��,17.5,33,,
2019/9/5,1:00:00,14,�k��,1.7,10.2,99.9,0,0,14,�k��,2.7,55,,
2019/9/5,2:00:00,14,�k��,1.5,11.9,99.6,0,0,13,���k��,3.6,15,,
2019/9/5,3:00:00,13,���k��,2.1,10.8,99.8,0,0,13,���k��,3,53,,
2019/9/5,4:00:00,13,���k��,2.2,11.8,99.7,0,0,14,�k��,3.4,50,,
2019/9/5,5:00:00,12,��,1.9,10,99.5,0,0,13,���k��,3,29,,
2019/9/5,6:00:00,14,�k��,0.7,12.3,100,0,0.05,14,�k��,2.7,16,,
2019/9/5,7:00:00,12,��,1.1,14,99.2,0,0.15,13,���k��,3.3,45,,
2019/9/5,8:00:00,3,���k��,0.4,18,86.9,0,0.45,6,�쓌,3.3,43,,
2019/9/5,9:00:00,5,���쓌,1.8,19,82.8,0,0.63,4,��,3.1,24,,
2019/9/5,10:00:00,5,���쓌,2.4,20.1,79.9,0,0.77,7,��쓌,3.6,59,,
2019/9/5,11:00:00,5,���쓌,2.8,20.2,77.6,0,0.86,5,���쓌,4.6,35,,
2019/9/5,12:00:00,6,�쓌,2.3,19.8,80.9,0,0.77,6,�쓌,4.8,45,,
2019/9/5,13:00:00,5,���쓌,2.9,20,80.4,0,0.76,5,���쓌,6.1,45,,
2019/9/5,14:00:00,6,�쓌,3.5,21.3,79.6,0,0.74,6,�쓌,5.9,52,,
2019/9/5,15:00:00,5,���쓌,3.5,21.1,81.3,0,0.66,5,���쓌,6,20,,
2019/9/5,16:00:00,4,��,2.9,19.4,87.5,0,0.39,2,�k��,6.2,8,,
2019/9/5,17:00:00,3,���k��,2.7,20.2,86.3,0,0.24,3,���k��,4.3,45,,
2019/9/5,18:00:00,4,��,2.3,17.7,94.4,0,0.06,3,���k��,3.5,0,,
2019/9/5,19:00:00,8,��,0.9,17.3,95.1,0,0,4,��,3.3,7,,
2019/9/5,20:00:00,14,�k��,1.5,16.8,98.6,0,0,14,�k��,2.5,43,,
2019/9/5,21:00:00,14,�k��,1.6,16.8,98.4,0,0,13,���k��,3.7,30,,
2019/9/5,22:00:00,16,�É�,0,16.3,99.1,0,0,11,���쐼,2,18,,
2019/9/5,23:00:00,16,�É�,0.2,16.3,99.4,0,0,13,���k��,1.9,14,,
2019/9/5,0:00:00,13,���k��,0.5,15.2,99.2,0,0,13,���k��,2.4,41,,
2019/9/6,1:00:00,13,���k��,1,14.6,100,0,0,13,���k��,2.5,21,,
2019/9/6,2:00:00,14,�k��,1.4,15.7,100,0,0,14,�k��,2.4,51,,
2019/9/6,3:00:00,13,���k��,1.1,13.6,100,0,0,12,��,2.5,23,,
2019/9/6,4:00:00,14,�k��,1.4,13.9,100,0,0,13,���k��,2.4,36,,
2019/9/6,5:00:00,14,�k��,1.3,12.7,100,0,0,14,�k��,1.9,58,,
2019/9/6,6:00:00,10,�쐼,0.8,15.5,100,0,0.08,12,��,2.3,24,,
2019/9/6,7:00:00,16,�k,0.7,17,99.9,0,0.15,13,���k��,1.8,6,,
2019/9/6,8:00:00,16,�É�,0.2,20,89.6,0,0.45,16,�k,1.8,14,,
2019/9/6,9:00:00,7,��쓌,0.8,22.4,79.5,0,0.64,5,���쓌,2.8,59,,
2019/9/6,10:00:00,7,��쓌,2.2,22.5,77.5,0,0.77,6,�쓌,3.9,29,,
2019/9/6,11:00:00,5,���쓌,2.5,22.3,79.5,0,0.82,7,��쓌,4.2,49,,
2019/9/6,12:00:00,7,��쓌,2.4,23.5,73,0,0.82,7,��쓌,4.1,27,,
2019/9/6,13:00:00,8,��,3.1,21.7,76.7,0,0.69,8,��,4.6,56,,
2019/9/6,14:00:00,8,��,2.4,21.9,79.2,0,0.46,8,��,4.1,0,,
2019/9/6,15:00:00,8,��,2.5,21.4,74.3,0,0.39,9,��쐼,4.4,52,,
2019/9/6,16:00:00,8,��,0.5,21.6,77.1,0,0.24,10,�쐼,4.3,39,,
2019/9/6,17:00:00,3,���k��,1,20.5,85,0,0.17,8,��,2.1,37,,
2019/9/6,18:00:00,12,��,0.8,18.8,95.4,0,0.02,11,���쐼,1.2,0,,
2019/9/6,19:00:00,13,���k��,0.8,18.5,96.6,0,0,13,���k��,1.2,57,,
2019/9/6,20:00:00,13,���k��,1.1,18.6,95.1,0,0,14,�k��,2.1,58,,
2019/9/6,21:00:00,14,�k��,1.4,19,87.6,0,0,14,�k��,2.5,58,,
2019/9/6,22:00:00,5,���쓌,0.3,18.7,91,0,0,14,�k��,2.9,6,,
2019/9/6,23:00:00,11,���쐼,0.4,17.9,97.1,0,0,13,���k��,1.2,16,,
2019/9/6,0:00:00,11,���쐼,0.5,17.9,98.5,0,0,12,��,1.3,8,,
2019/9/7,1:00:00,16,�É�,0,18.2,98.6,0,0,11,���쐼,1.3,3,,
2019/9/7,2:00:00,11,���쐼,0.7,18.2,98.4,0,0,13,���k��,2.1,31,,
2019/9/7,3:00:00,16,�É�,0.1,18.3,98.6,1,0,5,���쓌,2.4,27,,
2019/9/7,4:00:00,1,�k�k��,1.3,18.1,99.3,0,0,1,�k�k��,2.1,55,,
2019/9/7,5:00:00,13,���k��,0.8,18,99.4,0,0,1,�k�k��,2.2,6,,
2019/9/7,6:00:00,14,�k��,0.9,17.8,99.6,10.5,0,2,�k��,3.3,32,,
2019/9/7,7:00:00,3,���k��,0.7,17.3,99.4,12.5,0.01,3,���k��,2.1,46,,
2019/9/7,8:00:00,13,���k��,0.8,18.3,97.3,0,0.11,5,���쓌,1.7,2,,
2019/9/7,9:00:00,4,��,0.4,19.9,89.7,0,0.27,14,�k��,2,4,,
2019/9/7,10:00:00,8,��,1.2,21.3,89.1,0,0.47,5,���쓌,2.6,48,,
2019/9/7,11:00:00,7,��쓌,1.2,20.2,84.6,0,0.4,5,���쓌,2.7,19,,
2019/9/7,12:00:00,6,�쓌,2,20.9,82.2,0,0.4,5,���쓌,3.2,55,,
2019/9/7,13:00:00,6,�쓌,2.1,21.7,86.5,0,0.62,7,��쓌,4.3,30,,
2019/9/7,14:00:00,6,�쓌,2.3,22.6,80.7,0,0.75,7,��쓌,4,49,,
2019/9/7,15:00:00,5,���쓌,2.5,22,83.2,0,0.61,6,�쓌,4,47,,
2019/9/7,16:00:00,4,��,2.5,20.4,89.5,0,0.24,4,��,4.1,23,,
2019/9/7,17:00:00,3,���k��,1.8,19.9,92.9,0,0.06,4,��,3.7,1,,
2019/9/7,18:00:00,6,�쓌,1.2,18.8,97.3,0,0.02,6,�쓌,2.2,48,,
2019/9/7,19:00:00,16,�É�,0.2,18.8,98.6,0,0,6,�쓌,1.7,0,,
2019/9/7,20:00:00,8,��,0.6,18.6,99.2,0,0,8,��,1.3,59,,
2019/9/7,21:00:00,16,�É�,0.2,18.5,99.5,0,0,8,��,1.5,1,,
2019/9/7,22:00:00,16,�É�,0.1,18.5,99.7,0,0,8,��,1.3,21,,
2019/9/7,23:00:00,8,��,0.5,18.4,99.9,0,0,6,�쓌,1.2,56,,
2019/9/7,0:00:00,9,��쐼,0.3,18.4,100,0,0,8,��,1.2,49,,
2019/9/8,1:00:00,16,�É�,0,18.5,100,0,0,10,�쐼,0.7,6,,
2019/9/8,2:00:00,15,�k�k��,0.4,18.3,100,0,0,14,�k��,1.1,54,,
2019/9/8,3:00:00,16,�É�,0,18.3,100,0,0,16,�k,1.3,39,,
2019/9/8,4:00:00,16,�É�,0,18.4,100,0,0,15,�k�k��,1.3,22,,
2019/9/8,5:00:00,9,��쐼,0.8,18.3,100,0,0,9,��쐼,1.3,57,,
2019/9/8,6:00:00,16,�É�,0,18.6,100,0,0.02,8,��,1,0,,
2019/9/8,7:00:00,16,�É�,0.2,19.4,100,0,0.13,15,�k�k��,1.5,38,,
2019/9/8,8:00:00,2,�k��,0.6,19.7,99.7,0,0.15,4,��,1.4,37,,
2019/9/8,9:00:00,6,�쓌,1.4,20.2,98.6,0,0.19,5,���쓌,2.3,59,,
2019/9/8,10:00:00,5,���쓌,2.1,20.5,97.4,0,0.29,5,���쓌,3.5,22,,
2019/9/8,11:00:00,4,��,1.9,21.5,93.5,0,0.39,5,���쓌,3.3,35,,
2019/9/8,12:00:00,4,��,2.5,21.3,93,0,0.41,4,��,3.5,48,,
2019/9/8,13:00:00,4,��,2.7,21.5,93.7,0,0.35,4,��,4,10,,
2019/9/8,14:00:00,4,��,2.5,21.5,94.1,0,0.32,4,��,4.2,7,,
2019/9/8,15:00:00,4,��,1.6,21,96.8,0,0.21,3,���k��,3.7,16,,
2019/9/8,16:00:00,5,���쓌,1.3,20.6,97.4,0,0.14,3,���k��,2.5,30,,
2019/9/8,17:00:00,4,��,1,20.1,98.5,0,0.07,5,���쓌,2.5,23,,
2019/9/8,18:00:00,3,���k��,0.9,19.8,99.5,0,0.01,4,��,1.8,22,,
2019/9/8,19:00:00,16,�É�,0,19.7,99.8,0,0,4,��,1.5,13,,
2019/9/8,20:00:00,14,�k��,0.3,19.8,100,0,0,13,���k��,1.2,47,,
2019/9/8,21:00:00,8,��,1.1,19.8,100,0,0,8,��,1.8,56,,
2019/9/8,22:00:00,11,���쐼,0.8,19.9,100,0,0,13,���k��,1.7,26,,
2019/9/8,23:00:00,16,�É�,0.2,19.8,100,0,0,14,�k��,1.8,38,,
2019/9/8,0:00:00,3,���k��,2,19.7,100,0,0,2,�k��,2.5,53,,
2019/9/9,1:00:00,5,���쓌,1.2,19.5,100,0,0,2,�k��,2.9,12,,
2019/9/9,2:00:00,13,���k��,0.3,19.4,100,0,0,11,���쐼,2.1,38,,
2019/9/9,3:00:00,11,���쐼,1.6,18.6,100,0,0,12,��,2.5,58,,
2019/9/9,4:00:00,13,���k��,0.8,18.1,100,0,0,12,��,2.5,38,,
2019/9/9,5:00:00,7,��쓌,0.6,17.8,100,0,0,12,��,2.1,44,,
2019/9/9,6:00:00,16,�k,0.8,19.7,100,0,0.08,4,��,2,21,,
2019/9/9,7:00:00,8,��,1.1,24.5,91.9,0,0.31,8,��,2.6,55,,
2019/9/9,8:00:00,10,�쐼,2.4,28.8,67.6,0,0.58,10,�쐼,5.5,59,,
2019/9/9,9:00:00,11,���쐼,2.6,29.2,73.3,0,0.53,10,�쐼,6.4,19,,
2019/9/9,10:00:00,11,���쐼,4.8,31,59,0,0.64,10,�쐼,7.4,57,,
2019/9/9,11:00:00,11,���쐼,4.6,30.3,63.2,0,0.78,11,���쐼,8.1,20,,
2019/9/9,12:00:00,8,��,3.6,31,65.5,0,0.8,6,�쓌,6.6,16,,
2019/9/9,13:00:00,9,��쐼,2.9,30.7,61.3,0,0.9,8,��,7.8,18,,
2019/9/9,14:00:00,9,��쐼,2.5,30.9,58.4,0,0.93,8,��,5.1,59,,
2019/9/9,15:00:00,11,���쐼,5.3,31.1,62.1,0,0.66,10,�쐼,8.4,43,,
2019/9/9,16:00:00,6,�쓌,3.3,26.7,71.3,0,0.39,11,���쐼,8.1,5,,
2019/9/9,17:00:00,9,��쐼,2,28.3,70.4,0,0.19,6,�쓌,5.9,6,,
2019/9/9,18:00:00,10,�쐼,2,27.8,69.1,0,0.05,11,���쐼,5.6,26,,
2019/9/9,19:00:00,4,��,0.4,22.9,91.9,0,0,11,���쐼,3.3,2,,
2019/9/9,20:00:00,11,���쐼,0.8,21.2,94.3,0,0,13,���k��,2.1,21,,
2019/9/9,21:00:00,12,��,1.6,20.6,97.8,0,0,13,���k��,2.3,59,,
2019/9/9,22:00:00,1,�k�k��,1.3,21,96.7,0,0,2,�k��,2.4,46,,
2019/9/9,23:00:00,11,���쐼,1.8,21.5,97.1,0,0,12,��,2.5,54,,
2019/9/9,0:00:00,7,��쓌,1.7,21.6,96.6,0,0,12,��,3.8,39,,
2019/9/10,1:00:00,9,��쐼,0.6,21.5,94.9,0,0,10,�쐼,4.5,13,,
2019/9/10,2:00:00,11,���쐼,0.6,21.2,97.5,0,0,13,���k��,2,9,,
2019/9/10,3:00:00,13,���k��,1,21.1,98.5,0,0,13,���k��,2.1,35,,
2019/9/10,4:00:00,8,��,1.5,21.5,97.9,0,0,13,���k��,2.8,29,,
2019/9/10,5:00:00,4,��,1.2,20.9,96.9,0,0,14,�k��,3,4,,
2019/9/10,6:00:00,12,��,0.8,21,98.4,0,0.02,2,�k��,1.9,31,,
2019/9/10,7:00:00,12,��,0.8,23.5,92,0,0.15,10,�쐼,1.9,15,,
2019/9/10,8:00:00,14,�k��,2.5,26.7,76.9,0,0.38,13,���k��,4.4,56,,
2019/9/10,9:00:00,14,�k��,2.3,28.4,70.3,0,0.56,14,�k��,4.8,1,,
2019/9/10,10:00:00,6,�쓌,2.5,27.9,73.8,0,0.76,14,�k��,4.2,10,,
2019/9/10,11:00:00,7,��쓌,1.9,28,71.2,0,0.84,7,��쓌,4.6,29,,
2019/9/10,12:00:00,7,��쓌,0.8,28.5,76.2,0,0.88,7,��쓌,3.7,23,,
2019/9/10,13:00:00,7,��쓌,0.8,28.4,68.4,0,0.83,6,�쓌,1.6,37,,
2019/9/10,14:00:00,7,��쓌,0.8,27.5,72.8,0,0.73,7,��쓌,1.7,48,,
2019/9/10,15:00:00,7,��쓌,0.9,28.2,65.4,0,0.59,8,��,2.7,31,,
2019/9/10,16:00:00,6,�쓌,1.2,27.2,62.1,0,0.42,6,�쓌,5.1,25,,
2019/9/10,17:00:00,15,�k�k��,3.5,25.7,31.2,0,0.23,15,�k�k��,7.4,57,,
2019/9/10,18:00:00,14,�k��,3.2,23,33.7,0,0.05,15,�k�k��,9.1,12,,
2019/9/10,19:00:00,15,�k�k��,3.1,22.2,39.5,0,0,15,�k�k��,6.6,2,,
2019/9/10,20:00:00,3,���k��,2.5,17.9,75.6,0,0,14,�k��,6.2,0,,
2019/9/10,21:00:00,1,�k�k��,0.6,14.3,91.8,0,0,3,���k��,3.8,2,,
2019/9/10,22:00:00,12,��,1.7,12.5,98,0,0,13,���k��,2.2,57,,
2019/9/10,23:00:00,12,��,2,13.1,95.5,0,0,12,��,2.5,0,,
2019/9/10,0:00:00,12,��,2,12.4,96.4,0,0,12,��,2.9,23,,
2019/9/11,1:00:00,12,��,1.9,13,96.6,0,0,13,���k��,2.6,12,,
2019/9/11,2:00:00,13,���k��,1,13,97.6,0,0,12,��,2.5,22,,
2019/9/11,3:00:00,13,���k��,0.4,12,98.3,0,0,13,���k��,2.5,30,,
2019/9/11,4:00:00,14,�k��,1.5,11.7,98.4,0,0,13,���k��,2.5,5,,
2019/9/11,5:00:00,14,�k��,1.3,12.9,98.6,0,0,13,���k��,2.5,21,,
2019/9/11,6:00:00,14,�k��,1.6,13.9,92.5,0,0.03,14,�k��,3.4,26,,
2019/9/11,7:00:00,14,�k��,1.5,15,90.3,0,0.08,14,�k��,3.8,9,,
2019/9/11,8:00:00,14,�k��,1.8,15.9,89,0,0.16,14,�k��,4.1,20,,
2019/9/11,9:00:00,14,�k��,1.4,16.2,89.1,0,0.09,14,�k��,3.1,58,,
2019/9/11,10:00:00,16,�É�,0.2,18.3,78.4,0,0.19,14,�k��,3.3,7,,
2019/9/11,11:00:00,15,�k�k��,0.6,18.1,84.6,0,0.17,16,�k,2.5,15,,
2019/9/11,12:00:00,2,�k��,0.7,17.7,83.7,0,0.14,4,��,2.4,27,,
2019/9/11,13:00:00,4,��,0.8,16.8,86.9,0,0.11,4,��,3.8,35,,
2019/9/11,14:00:00,14,�k��,1,15.3,95.9,1.5,0.04,3,���k��,2.8,36,,
2019/9/11,15:00:00,2,�k��,1.9,14.3,98.4,6,0.05,3,���k��,2.9,53,,
2019/9/11,16:00:00,15,�k�k��,1.5,14,98.8,6,0.03,16,�k,4.7,36,,
2019/9/11,17:00:00,16,�k,3,13.8,97.9,6.5,0.01,16,�k,7,57,,
2019/9/11,18:00:00,14,�k��,3.6,13.6,98.7,7.5,0,14,�k��,7.7,35,,
2019/9/11,19:00:00,15,�k�k��,1.9,13.6,98.9,5,0,14,�k��,5.9,35,,
2019/9/11,20:00:00,14,�k��,2.9,13.8,99.1,2,0,14,�k��,5.4,51,,
2019/9/11,21:00:00,14,�k��,2.5,13.8,99,0.5,0,14,�k��,5,4,,
2019/9/11,22:00:00,14,�k��,3,13.9,98.8,0.5,0,14,�k��,6,48,,
2019/9/11,23:00:00,14,�k��,3.3,13.7,99.1,0.5,0,14,�k��,6.2,50,,
2019/9/11,0:00:00,14,�k��,1.9,13.6,99.5,0,0,14,�k��,6.1,1,,
2019/9/12,1:00:00,14,�k��,1.8,13.7,99.7,0.5,0,15,�k�k��,3.8,58,,
2019/9/12,2:00:00,14,�k��,1.1,13.7,99.8,0.5,0,15,�k�k��,3,18,,
2019/9/12,3:00:00,13,���k��,1.4,13.7,99.8,0.5,0,14,�k��,3.5,16,,
2019/9/12,4:00:00,13,���k��,2,13.8,100,0.5,0,15,�k�k��,3,14,,
2019/9/12,5:00:00,14,�k��,1.2,13.7,100,1,0,13,���k��,3.5,4,,
2019/9/12,6:00:00,13,���k��,1.2,14,100,0,0.01,13,���k��,2.7,5,,
2019/9/12,7:00:00,12,��,2.1,15.1,99.5,0,0.07,12,��,3.1,51,,
2019/9/12,8:00:00,14,�k��,1.6,16,96.4,0,0.14,14,�k��,3.7,32,,
2019/9/12,9:00:00,14,�k��,2.8,17.7,87.9,0,0.41,14,�k��,5.3,50,,
2019/9/12,10:00:00,1,�k�k��,2.9,20.1,80,0,0.63,16,�k,6.3,41,,
2019/9/12,11:00:00,2,�k��,2.8,20.6,72.5,0,0.64,16,�k,4.9,29,,
2019/9/12,12:00:00,4,��,4.3,19.3,74.2,0,0.71,4,��,6.9,53,,
2019/9/12,13:00:00,3,���k��,3.5,19.7,71.7,0.5,0.62,3,���k��,7,44,,
2019/9/12,14:00:00,2,�k��,4,21.1,68.6,0,0.72,2,�k��,6.9,44,,
2019/9/12,15:00:00,7,��쓌,2.5,18.2,76.6,0,0.57,5,���쓌,5.6,5,,
2019/9/12,16:00:00,7,��쓌,1.3,18,80.2,0,0.2,2,�k��,5.4,0,,
2019/9/12,17:00:00,2,�k��,1.1,17,81.9,0,0.15,2,�k��,2.5,18,,
2019/9/12,18:00:00,5,���쓌,1.2,14,95.5,0,0.02,5,���쓌,1.6,56,,
2019/9/12,19:00:00,16,�É�,0,12.2,98.7,0,0,5,���쓌,1.3,0,,
2019/9/12,20:00:00,16,�É�,0.1,12.5,99.9,0,0,9,��쐼,1.7,27,,
2019/9/12,21:00:00,9,��쐼,1.4,12.6,99.9,0,0,10,�쐼,2.8,22,,
2019/9/12,22:00:00,10,�쐼,1.9,13.4,98.7,0,0,10,�쐼,3.2,20,,
2019/9/12,23:00:00,11,���쐼,1.6,12,97.4,0,0,10,�쐼,3,7,,
2019/9/12,0:00:00,10,�쐼,1.5,11.3,97,0,0,11,���쐼,3.3,36,,
2019/9/13,1:00:00,10,�쐼,2.1,10.3,98.5,0,0,10,�쐼,3.1,53,,
2019/9/13,2:00:00,11,���쐼,2.6,11.1,96.8,0,0,11,���쐼,4.4,57,,
2019/9/13,3:00:00,10,�쐼,2,10.2,96.8,0,0,11,���쐼,3.6,31,,
2019/9/13,4:00:00,11,���쐼,2.3,9.4,96.4,0,0,11,���쐼,4.3,30,,
2019/9/13,5:00:00,10,�쐼,0.9,8.8,98.4,0,0,11,���쐼,3.9,22,,
2019/9/13,6:00:00,12,��,1.8,10.9,98.7,0,0.07,13,���k��,3.5,53,,
2019/9/13,7:00:00,13,���k��,2.5,13.5,88.9,0,0.27,12,��,5.1,53,,
2019/9/13,8:00:00,14,�k��,2.1,16.3,81.6,0,0.38,14,�k��,4.3,10,,
2019/9/13,9:00:00,2,�k��,0.5,18,71.4,0,0.64,13,���k��,3.6,25,,
2019/9/13,10:00:00,6,�쓌,2.5,19.2,67.7,0,0.81,6,�쓌,4.4,28,,
2019/9/13,11:00:00,6,�쓌,3,18.8,63.9,0,0.84,6,�쓌,4.9,31,,
2019/9/13,12:00:00,6,�쓌,2.9,19.5,67.5,0,0.91,6,�쓌,5.8,14,,
2019/9/13,13:00:00,7,��쓌,3.3,18.9,65,0,0.85,8,��,5.3,48,,
2019/9/13,14:00:00,8,��,3.5,18.8,69.6,0,0.75,6,�쓌,5.8,25,,
2019/9/13,15:00:00,9,��쐼,3.6,18.1,73.1,0,0.61,8,��,6.4,27,,
2019/9/13,16:00:00,9,��쐼,3.2,17.4,68.6,0,0.43,8,��,6,51,,
2019/9/13,17:00:00,9,��쐼,2.3,15.9,77.5,0,0.2,9,��쐼,6.2,5,,
2019/9/13,18:00:00,10,�쐼,1.6,13.7,86.9,0,0.03,9,��쐼,2.9,14,,
2019/9/13,19:00:00,13,���k��,1.1,9.4,98.2,0,0,10,�쐼,2.4,0,,
2019/9/13,20:00:00,13,���k��,0.9,7.9,99.2,0,0,13,���k��,1.8,13,,
2019/9/13,21:00:00,12,��,1.6,7.5,99.7,0,0,12,��,2.4,38,,
2019/9/13,22:00:00,12,��,1.9,7.6,100,0,0,13,���k��,2.5,35,,
2019/9/13,23:00:00,12,��,2.3,8.5,100,0,0,12,��,3.1,43,,
2019/9/13,0:00:00,12,��,2.1,8,99.7,0,0,13,���k��,2.5,52,,
2019/9/14,1:00:00,12,��,1.5,8.5,100,0,0,12,��,3.4,18,,
2019/9/14,2:00:00,13,���k��,1.2,8.1,99.6,0,0,13,���k��,2.9,18,,
2019/9/14,3:00:00,13,���k��,1.9,7.8,100,0,0,12,��,2.8,59,,
2019/9/14,4:00:00,13,���k��,1.7,8.8,100,0,0,14,�k��,4.1,15,,
2019/9/14,5:00:00,13,���k��,1.7,8.3,99.5,0,0,13,���k��,2.7,14,,
2019/9/14,6:00:00,13,���k��,1,9.7,100,0,0.05,13,���k��,2.7,13,,
2019/9/14,7:00:00,16,�É�,0.2,13,91.3,0,0.24,7,��쓌,2.7,25,,
2019/9/14,8:00:00,15.6,�k�k��,91.5,0,0.31,,,,,,,,
2019/9/14,9:00:00,1,�k�k��,1.5,17,89.4,0,0.29,16,�k,3,31,,
2019/9/14,10:00:00,6,�쓌,2.5,20.1,78.4,0,0.71,6,�쓌,4.2,56,,
2019/9/14,11:00:00,8,��,3.5,20.2,77.4,0,0.72,8,��,7.3,59,,
2019/9/14,12:00:00,8,��,4.8,20.9,79.1,0,0.83,8,��,9.1,58,,
2019/9/14,13:00:00,8,��,4.4,22.1,71.4,0,0.64,7,��쓌,10.4,10,,
2019/9/14,14:00:00,8,��,3.9,22,72.1,0,0.77,8,��,9.7,25,,
2019/9/14,15:00:00,9,��쐼,3.7,21.5,76.1,0,0.34,8,��,9,9,,
2019/9/14,16:00:00,8,��,3.8,19.4,85.9,0,0.19,8,��,7.5,34,,
2019/9/14,17:00:00,8,��,4.2,18.9,88.3,0,0.06,8,��,9,54,,
2019/9/14,18:00:00,8,��,4.1,18.6,89.8,0,0.01,8,��,10,6,,
2019/9/14,19:00:00,8,��,3.1,18.3,91.8,0,0,7,��쓌,8.6,8,,
2019/9/14,20:00:00,9,��쐼,3.2,18.4,92.7,0,0,8,��,7.7,39,,
2019/9/14,21:00:00,10,�쐼,2.5,18.3,92.6,0,0,8,��,7.7,1,,
2019/9/14,22:00:00,10,�쐼,2.5,18.1,94.8,0,0,10,�쐼,5.7,5,,
2019/9/14,23:00:00,10,�쐼,3.4,18.3,94.2,0,0,9,��쐼,6.8,51,,
2019/9/14,0:00:00,13,���k��,1.8,16.2,97.3,0,0,11,���쐼,7.4,1,,
2019/9/15,1:00:00,13,���k��,1.8,16.1,98,0,0,13,���k��,3.4,41,,
2019/9/15,2:00:00,16,�k,0.9,16,95.1,0,0,14,�k��,3.2,11,,
2019/9/15,3:00:00,12,��,0.7,15.2,96.5,0,0,12,��,2.2,40,,
2019/9/15,4:00:00,15,�k�k��,0.9,15.5,97,0,0,13,���k��,2.5,11,,
2019/9/15,5:00:00,16,�k,0.6,15.1,98.1,0,0,12,��,1.4,10,,
2019/9/15,6:00:00,14,�k��,0.8,15.8,98.7,0,0.01,14,�k��,1.8,15,,
2019/9/15,7:00:00,13,���k��,1.5,16.8,94.5,0,0.06,15,�k�k��,3.1,10,,
2019/9/15,8:00:00,16,�É�,0.2,18.6,92.1,0,0.14,14,�k��,2.3,5,,
2019/9/15,9:00:00,14,�k��,0.9,19,87,0,0.22,14,�k��,1.9,20,,
2019/9/15,10:00:00,1,�k�k��,1.6,21.3,79.9,0,0.33,16,�k,3.5,59,,
2019/9/15,11:00:00,2,�k��,1.9,22.8,78.1,0,0.46,16,�k,4.6,5,,
2019/9/15,12:00:00,4,��,2.5,20.9,89.8,0,0.46,4,��,3.8,21,,
2019/9/15,13:00:00,3,���k��,2.5,20.5,89.3,0,0.36,3,���k��,4.7,42,,
2019/9/15,14:00:00,3,���k��,2.6,20.8,87.3,0,0.27,3,���k��,4.8,35,,
2019/9/15,15:00:00,3,���k��,2.2,21,89,0,0.31,3,���k��,4.8,13,,
2019/9/15,16:00:00,3,���k��,2.3,20.1,88.9,0,0.14,3,���k��,3.6,8,,
2019/9/15,17:00:00,2,�k��,1.3,19.4,92.3,0,0.05,3,���k��,3,1,,
2019/9/15,18:00:00,2,�k��,1.4,18.9,94.9,0,0.01,2,�k��,2.8,14,,
2019/9/15,19:00:00,2,�k��,2.2,18.6,94.5,0,0,3,���k��,3.3,51,,
2019/9/15,20:00:00,3,���k��,0.8,18.2,95.7,0,0,2,�k��,3.6,1,,
2019/9/15,21:00:00,16,�É�,0.1,16.8,96.7,0,0,2,�k��,2.4,31,,
2019/9/15,22:00:00,1,�k�k��,0.7,17,99.6,0,0,16,�k,1.5,49,,
2019/9/15,23:00:00,2,�k��,1.7,17.9,97.1,0,0,1,�k�k��,3,55,,
2019/9/15,0:00:00,3,���k��,2.6,17.9,96.8,0,0,4,��,4.4,55,,
2019/9/16,1:00:00,3,���k��,2,17.6,97.5,0,0,3,���k��,4.9,1,,
2019/9/16,2:00:00,3,���k��,1.8,17.5,96.3,0,0,2,�k��,3.7,10,,
2019/9/16,3:00:00,2,�k��,1.9,17.4,96.2,0,0,3,���k��,3.4,20,,
2019/9/16,4:00:00,4,��,1.5,17.3,96.1,0,0,2,�k��,2.9,4,,
2019/9/16,5:00:00,16,�k,1.4,17.2,96,0,0,16,�k,2.7,57,,
2019/9/16,6:00:00,1,�k�k��,0.8,17.4,95,0,0.01,1,�k�k��,2,1,,
2019/9/16,7:00:00,1,�k�k��,0.9,17.7,95,0,0.02,3,���k��,2.6,46,,
2019/9/16,8:00:00,1,�k�k��,1.2,17.6,95.4,0,0.06,2,�k��,3.9,9,,
2019/9/16,9:00:00,14,�k��,1,17.9,98.8,0,0.07,14,�k��,2.2,24,,
2019/9/16,10:00:00,14,�k��,1.4,18.2,97.9,0,0.15,14,�k��,2.9,40,,
2019/9/16,11:00:00,1,�k�k��,0.8,18.7,98.2,0,0.18,14,�k��,3.1,2,,
2019/9/16,12:00:00,1,�k�k��,1.7,18.9,98.3,0.5,0.17,1,�k�k��,2.7,48,,
2019/9/16,13:00:00,16,�k,1.8,19,97,0,0.16,15,�k�k��,3.3,56,,
2019/9/16,14:00:00,2,�k��,2.2,18.9,97.7,0,0.15,2,�k��,3.5,34,,
2019/9/16,15:00:00,16,�k,1.8,19.3,97.9,0,0.11,1,�k�k��,3.4,25,,
2019/9/16,16:00:00,16,�k,2,19.5,95.7,0,0.13,16,�k,5,46,,
2019/9/16,17:00:00,15,�k�k��,1.3,18.9,96.5,0,0.04,1,�k�k��,4.6,9,,
2019/9/16,18:00:00,15,�k�k��,1.7,18.6,97.2,0,0.01,15,�k�k��,3.5,57,,
2019/9/16,19:00:00,14,�k��,2.9,18.4,98.3,0,0,14,�k��,4.5,58,,
2019/9/16,20:00:00,14,�k��,1.9,18.3,98.8,0,0,15,�k�k��,4.9,17,,
2019/9/16,21:00:00,14,�k��,2.2,18.3,98.3,0,0,14,�k��,4.8,14,,
2019/9/16,22:00:00,13,���k��,2.7,18.4,97.6,0,0,13,���k��,4.9,3,,
2019/9/16,23:00:00,13,���k��,2.8,18.5,96.7,0,0,13,���k��,4.9,57,,
2019/9/16,0:00:00,14,�k��,3,18.3,97,0,0,14,�k��,5,24,,
2019/9/17,1:00:00,14,�k��,3.1,18.5,95.6,0,0,14,�k��,5.4,55,,
2019/9/17,2:00:00,14,�k��,2.1,18.4,95.9,0,0,14,�k��,6,20,,
2019/9/17,3:00:00,14,�k��,1.9,18.4,95.9,0,0,14,�k��,4.8,29,,
2019/9/17,4:00:00,12,��,1.1,18.3,97.5,0,0,14,�k��,3,1,,
2019/9/17,5:00:00,13,���k��,2.1,18.2,97.7,0,0,13,���k��,3.5,57,,
2019/9/17,6:00:00,2,�k��,0.7,18.4,97.3,0,0.01,12,��,2.4,4,,
2019/9/17,7:00:00,16,�É�,0.1,19.8,94.2,0,0.07,14,�k��,1.6,12,,